Kansas City International Airport Kansas City US
ICAO: KMCI
IATA: MCI
Category: Large
Scheduled Services: Yes

Elevation: 1026 ft
TransAlt. 18000 ft.

Airport Communications:
APP:120.95
ATIS:126.625
CLNC DEL:135.7
DEP:124.7
GND:121.65
COLUMBIA RDO:122.65
INTL TWR:125.75
UNICOM:122.95

KMCI Zoom In..

If you have problems with the map follow the link
https://www.worldairports.se/pages/airport.php?
ICAO=KMCI

Runways:

(A) RW 01L length 10801 ft width 150 ft
ILS 110.50 / hdg 11

(B) RW 01R length 9500 ft width 150 ft
ILS 110.75 / hdg 11

(C) RW 09 length 9500 ft width 150 ft
ILS 109.70 / hdg 94

(D) RW 19L length 9500 ft width 150 ft
ILS 109.55 / hdg 191

(E) RW 19R length 10801 ft width 150 ft
ILS 109.10 / hdg 191

(F) RW 27 length 9500 ft width 150 ft
ILS 109.70 / hdg 274

Location; KMCI
Day. 23 / Time. 16.53 Zulu
* Altimeter: 30.37
* Temperature: 14° c. 57.2°f.
* Wind from: VRB° Speed 03 kn.
Dewpoint: -01° c.
Visibility: 10 Statute Miles.
Clouds: Few 25000 ft.

KMCI 231653Z VRB03KT 10SM FEW250 14/M01 A3037 RMK AO2 SLP283 T01441006


Wind From VRB°
Speed 03 kn.

 
 
jpsmedia.com for Web Design worldairports.se 2018   terms of use